Time,TemperatureF,DewpointF,PressureIn,WindDirection,WindDirectionDegrees,WindSpeedMPH,WindSpeedGustMPH,Humidity,HourlyPrecipIn,Conditions,Clouds,dailyrainin,SolarRadiationWatts/m^2,SoftwareType,DateUTC
2013-04-10 00:03:00,58.0,47.0,-100.00,North,351,7.0,21.0,68,0.00,,,0.00,0.000000,,2013-04-10 04:03:00,
2013-04-10 00:33:00,53.0,48.0,-100.00,NW,307,3.0,8.0,82,0.00,,,0.00,0.000000,,2013-04-10 04:33:00,
2013-04-10 00:43:00,53.0,48.0,-100.00,NW,307,3.0,8.0,82,0.00,,,0.00,0.000000,,2013-04-10 04:43:00,
2013-04-10 00:53:00,53.0,48.0,-100.00,NW,307,3.0,8.0,82,0.00,,,0.00,0.000000,,2013-04-10 04:53:00,
2013-04-10 01:03:00,53.0,48.0,-100.00,NW,307,3.0,8.0,82,0.00,,,0.00,0.000000,,2013-04-10 05:03:00,
2013-04-10 01:33:00,53.0,47.0,-100.00,NNE,16,1.0,6.0,81,0.00,,,0.00,0.000000,,2013-04-10 05:33:00,
2013-04-10 01:43:00,53.0,47.0,-100.00,NNE,16,1.0,6.0,81,0.00,,,0.00,0.000000,,2013-04-10 05:43:00,
2013-04-10 01:53:00,53.0,47.0,-100.00,NNE,16,1.0,6.0,81,0.00,,,0.00,0.000000,,2013-04-10 05:53:00,
2013-04-10 02:03:00,53.0,47.0,-100.00,NNE,16,1.0,6.0,81,0.00,,,0.00,0.000000,,2013-04-10 06:03:00,
2013-04-10 02:32:00,53.0,48.0,-100.00,North,5,2.0,4.0,82,0.00,,,0.00,0.000000,,2013-04-10 06:32:00,
2013-04-10 02:43:00,53.0,48.0,-100.00,North,5,2.0,4.0,82,0.00,,,0.00,0.000000,,2013-04-10 06:43:00,
2013-04-10 02:52:00,53.0,48.0,-100.00,North,5,2.0,4.0,82,0.00,,,0.00,0.000000,,2013-04-10 06:52:00,
2013-04-10 03:02:00,53.0,48.0,-100.00,North,5,2.0,4.0,82,0.00,,,0.00,0.000000,,2013-04-10 07:02:00,
2013-04-10 03:33:00,52.0,47.0,-100.00,SW,233,0.0,3.0,83,0.00,,,0.00,0.000000,,2013-04-10 07:33:00,
2013-04-10 03:43:00,52.0,47.0,-100.00,SW,233,0.0,3.0,83,0.00,,,0.00,0.000000,,2013-04-10 07:43:00,
2013-04-10 03:52:00,52.0,47.0,-100.00,SW,233,0.0,3.0,83,0.00,,,0.00,0.000000,,2013-04-10 07:52:00,
2013-04-10 04:02:00,52.0,47.0,-100.00,SW,233,0.0,3.0,83,0.00,,,0.00,0.000000,,2013-04-10 08:02:00,
2013-04-10 04:32:00,52.0,48.0,-100.00,SW,221,1.0,3.0,85,0.00,,,0.00,0.000000,,2013-04-10 08:32:00,
2013-04-10 04:43:00,52.0,48.0,-100.00,SW,221,1.0,3.0,85,0.00,,,0.00,0.000000,,2013-04-10 08:43:00,
2013-04-10 04:52:00,52.0,48.0,-100.00,SW,221,1.0,3.0,85,0.00,,,0.00,0.000000,,2013-04-10 08:52:00,
2013-04-10 05:02:00,52.0,48.0,-100.00,SW,221,1.0,3.0,85,0.00,,,0.00,0.000000,,2013-04-10 09:02:00,
2013-04-10 05:33:00,51.0,50.0,-100.00,North,7,1.0,3.0,97,0.13,,,0.13,0.000000,,2013-04-10 09:33:00,
2013-04-10 05:43:00,51.0,50.0,-100.00,North,7,1.0,3.0,97,0.13,,,0.13,0.000000,,2013-04-10 09:43:00,
2013-04-10 05:53:00,51.0,50.0,-100.00,North,7,1.0,3.0,97,0.13,,,0.13,0.000000,,2013-04-10 09:53:00,
2013-04-10 06:03:00,51.0,50.0,-100.00,North,7,1.0,3.0,97,0.13,,,0.13,0.000000,,2013-04-10 10:03:00,
2013-04-10 06:33:00,51.0,51.0,-100.00,South,181,1.0,4.0,99,0.09,,,0.22,0.000000,,2013-04-10 10:33:00,
2013-04-10 06:43:00,51.0,51.0,-100.00,South,181,1.0,4.0,99,0.09,,,0.22,0.000000,,2013-04-10 10:43:00,
2013-04-10 06:53:00,51.0,51.0,-100.00,South,181,1.0,4.0,99,0.09,,,0.22,0.000000,,2013-04-10 10:53:00,
2013-04-10 07:03:00,51.0,51.0,-100.00,South,181,1.0,4.0,99,0.09,,,0.22,0.000000,,2013-04-10 11:03:00,
2013-04-10 09:33:00,55.0,55.0,-100.00,NNE,18,1.0,4.0,99,-99.99,,,0.25,103.000000,,2013-04-10 13:33:00,
2013-04-10 09:43:00,55.0,55.0,-100.00,NNE,18,1.0,4.0,99,-99.99,,,0.25,103.000000,,2013-04-10 13:43:00,
2013-04-10 09:53:00,55.0,55.0,-100.00,NNE,18,1.0,4.0,99,-99.99,,,0.25,103.000000,,2013-04-10 13:53:00,
2013-04-10 10:02:00,55.0,55.0,-100.00,NNE,18,1.0,4.0,99,-99.99,,,0.25,103.000000,,2013-04-10 14:02:00,
2013-04-10 10:33:00,56.0,55.0,-100.00,SSE,156,3.0,5.0,98,0.17,,,0.42,85.000000,,2013-04-10 14:33:00,
2013-04-10 10:42:00,56.0,55.0,-100.00,SSE,156,3.0,5.0,98,0.17,,,0.42,85.000000,,2013-04-10 14:42:00,
2013-04-10 10:52:00,56.0,55.0,-100.00,SSE,156,3.0,5.0,98,0.17,,,0.42,85.000000,,2013-04-10 14:52:00,
2013-04-10 11:03:00,56.0,55.0,-100.00,SSE,156,3.0,5.0,98,0.17,,,0.42,85.000000,,2013-04-10 15:03:00,
2013-04-10 12:33:00,62.0,58.0,-100.00,South,189,0.0,5.0,88,-99.99,,,0.42,191.000000,,2013-04-10 16:33:00,
2013-04-10 12:43:00,62.0,58.0,-100.00,South,189,0.0,5.0,88,-99.99,,,0.42,191.000000,,2013-04-10 16:43:00,
2013-04-10 12:53:00,62.0,58.0,-100.00,South,189,0.0,5.0,88,-99.99,,,0.42,191.000000,,2013-04-10 16:53:00,
2013-04-10 13:03:00,62.0,58.0,-100.00,South,189,0.0,5.0,88,-99.99,,,0.42,191.000000,,2013-04-10 17:03:00,
2013-04-10 13:34:00,65.0,59.0,-100.00,SSE,164,0.0,0.0,82,0.00,,,0.42,114.000000,,2013-04-10 17:34:00,
2013-04-10 13:43:00,65.0,59.0,-100.00,SSE,164,0.0,0.0,82,0.00,,,0.42,114.000000,,2013-04-10 17:43:00,
2013-04-10 13:53:00,65.0,59.0,-100.00,SSE,164,0.0,0.0,82,0.00,,,0.42,114.000000,,2013-04-10 17:53:00,
2013-04-10 14:03:00,65.0,59.0,-100.00,SSE,164,0.0,0.0,82,0.00,,,0.42,114.000000,,2013-04-10 18:03:00,
2013-04-10 14:33:00,62.0,60.0,-100.00,South,184,6.0,11.0,94,0.15,,,0.57,60.000000,,2013-04-10 18:33:00,
2013-04-10 14:43:00,62.0,60.0,-100.00,South,184,6.0,11.0,94,0.15,,,0.57,60.000000,,2013-04-10 18:43:00,
2013-04-10 14:53:00,62.0,60.0,-100.00,South,184,6.0,11.0,94,0.15,,,0.57,60.000000,,2013-04-10 18:53:00,
2013-04-10 15:03:00,62.0,60.0,-100.00,South,184,6.0,11.0,94,0.15,,,0.57,60.000000,,2013-04-10 19:03:00,
2013-04-10 15:33:00,63.0,60.0,-100.00,South,181,4.0,17.0,89,0.02,,,0.59,89.000000,,2013-04-10 19:33:00,
2013-04-10 15:42:00,63.0,60.0,-100.00,South,181,4.0,17.0,89,0.02,,,0.59,89.000000,,2013-04-10 19:42:00,
2013-04-10 15:53:00,63.0,60.0,-100.00,South,181,4.0,17.0,89,0.02,,,0.59,89.000000,,2013-04-10 19:53:00,
2013-04-10 16:03:00,63.0,60.0,-100.00,South,181,4.0,17.0,89,0.02,,,0.59,89.000000,,2013-04-10 20:03:00,
2013-04-10 16:33:00,67.0,59.0,-100.00,South,190,7.0,19.0,76,0.00,,,0.59,370.000000,,2013-04-10 20:33:00,
2013-04-10 16:43:00,67.0,59.0,-100.00,South,190,7.0,19.0,76,0.00,,,0.59,370.000000,,2013-04-10 20:43:00,
2013-04-10 16:53:00,67.0,59.0,-100.00,South,190,7.0,19.0,76,0.00,,,0.59,370.000000,,2013-04-10 20:53:00,
2013-04-10 17:03:00,67.0,59.0,-100.00,South,190,7.0,19.0,76,0.00,,,0.59,370.000000,,2013-04-10 21:03:00,
2013-04-10 17:33:00,56.0,54.0,-100.00,SE,133,2.0,17.0,94,0.15,,,0.74,67.000000,,2013-04-10 21:33:00,
2013-04-10 17:43:00,56.0,54.0,-100.00,SE,133,2.0,17.0,94,0.15,,,0.74,67.000000,,2013-04-10 21:43:00,
2013-04-10 17:53:00,56.0,54.0,-100.00,SE,133,2.0,17.0,94,0.15,,,0.74,67.000000,,2013-04-10 21:53:00,
2013-04-10 18:03:00,56.0,54.0,-100.00,SE,133,2.0,17.0,94,0.15,,,0.74,67.000000,,2013-04-10 22:03:00,
2013-04-10 18:34:00,55.0,54.0,-100.00,NE,41,1.0,16.0,95,0.27,,,1.01,17.000000,,2013-04-10 22:34:00,
2013-04-10 18:43:00,55.0,54.0,-100.00,NE,41,1.0,16.0,95,0.27,,,1.01,17.000000,,2013-04-10 22:43:00,
2013-04-10 18:53:00,55.0,54.0,-100.00,NE,41,1.0,16.0,95,0.27,,,1.01,17.000000,,2013-04-10 22:53:00,
2013-04-10 19:03:00,55.0,54.0,-100.00,NE,41,1.0,16.0,95,0.27,,,1.01,17.000000,,2013-04-10 23:03:00,
2013-04-10 19:33:00,56.0,54.0,-100.00,SW,219,3.0,15.0,93,0.08,,,1.09,3.000000,,2013-04-10 23:33:00,
2013-04-10 19:43:00,56.0,54.0,-100.00,SW,219,3.0,15.0,93,0.08,,,1.09,3.000000,,2013-04-10 23:43:00,
2013-04-10 19:53:00,56.0,54.0,-100.00,SW,219,3.0,15.0,93,0.08,,,1.09,3.000000,,2013-04-10 23:53:00,
2013-04-10 20:02:00,56.0,54.0,-100.00,SW,219,3.0,15.0,93,0.08,,,1.09,3.000000,,2013-04-11 00:02:00,
2013-04-10 20:32:00,51.0,50.0,-100.00,NW,322,5.0,11.0,96,0.02,,,1.11,1.000000,,2013-04-11 00:32:00,
2013-04-10 20:43:00,51.0,50.0,-100.00,NW,322,5.0,11.0,96,0.02,,,1.11,1.000000,,2013-04-11 00:43:00,
2013-04-10 20:53:00,51.0,50.0,-100.00,NW,322,5.0,11.0,96,0.02,,,1.11,1.000000,,2013-04-11 00:53:00,
2013-04-10 21:02:00,51.0,50.0,-100.00,NW,322,5.0,11.0,96,0.02,,,1.11,1.000000,,2013-04-11 01:02:00,
2013-04-10 21:32:00,47.0,46.0,-100.00,NNW,336,3.0,13.0,97,0.01,,,1.12,0.000000,,2013-04-11 01:32:00,
2013-04-10 21:42:00,47.0,46.0,-100.00,NNW,336,3.0,13.0,97,0.01,,,1.12,0.000000,,2013-04-11 01:42:00,
2013-04-10 21:52:00,47.0,46.0,-100.00,NNW,336,3.0,13.0,97,0.01,,,1.12,0.000000,,2013-04-11 01:52:00,
2013-04-10 22:03:00,47.0,46.0,-100.00,NNW,336,3.0,13.0,97,0.01,,,1.12,0.000000,,2013-04-11 02:03:00,
2013-04-10 22:32:00,44.0,43.0,-100.00,NW,326,3.0,10.0,98,0.00,,,1.12,0.000000,,2013-04-11 02:32:00,
2013-04-10 22:42:00,44.0,43.0,-100.00,NW,326,3.0,10.0,98,0.00,,,1.12,0.000000,,2013-04-11 02:42:00,
2013-04-10 22:53:00,44.0,43.0,-100.00,NW,326,3.0,10.0,98,0.00,,,1.12,0.000000,,2013-04-11 02:53:00,
2013-04-10 23:02:00,44.0,43.0,-100.00,NW,326,3.0,10.0,98,0.00,,,1.12,0.000000,,2013-04-11 03:02:00,
2013-04-10 23:33:00,44.0,44.0,-100.00,North,358,4.0,7.0,99,0.02,,,1.14,0.000000,,2013-04-11 03:33:00,
2013-04-10 23:43:00,44.0,44.0,-100.00,North,358,4.0,7.0,99,0.02,,,1.14,0.000000,,2013-04-11 03:43:00,
2013-04-10 23:54:00,44.0,44.0,-100.00,North,358,4.0,7.0,99,0.02,,,1.14,0.000000,,2013-04-11 03:54:00,